Other Public Products
Issued by NWS Grand Forks, ND

Home | Current Version | Previous Version | Graphics & Text | Print | Product List | Glossary On
Versions: 1 2 3 4 5 6 7 8 9 10 11 12 13 14 15 16 17 18 19 20 21 22 23 24 25 26 27 28 29 30 31 32 33 34 35 36 37 38 39 40 41 42 43 44 45 46 47 48 49 50
000
FPUS83 KFGF 260510
OPUFGF
PRAIRIE TO PINES WEATHER ROUNDUP
NATIONAL WEATHER SERVICE EASTERN NORTH DAKOTA/GRAND FORKS ND
1200 AM CDT THU MAY 26 2016

 **SATELLITE DATA USED TO AUGMENT SKY COVER AT AUTOMATED STATIONS**
 *****  WEATHER ACROSS EASTERN NORTH DAKOTA  *****

CITY           SKY/WX    TMP DP  RH WIND       PRES   REMARKS
GRAND FORKS    CLOUDY    59  56  89 SW7       29.70R
GRAND FORKS AF CLOUDY    58  58  99 W7        29.71R
GRAND CITY NWS   N/A     57 N/A N/A W3          N/A
BUXTON           N/A     59  58  98 SW5         N/A
DEVILS LAKE    PTCLDY    55  53  93 CALM      29.75R
FARGO          LGT RAIN  58  54  86 N5        29.73F
WAHPETON ARPT  CLOUDY    61  57  88 NW9G15    29.76S
$$

 *****  WEATHER ACROSS CENTRAL AND WESTERN NORTH DAKOTA  *****

CITY           SKY/WX    TMP DP  RH WIND       PRES   REMARKS
JAMESTOWN      CLOUDY    57  56  96 NW6       29.73R
BISMARCK       PTCLDY    55  51  86 W8        29.80R
MINOT          CLOUDY    60  55  83 S10       29.73F
MINOT AFB      CLOUDY    57  53  88 NW1       29.73S
GARRISON         N/A     55  51  86 W9        29.78S
WILLISTON      CLEAR     47  45  93 NW6       29.82S
DICKINSON      CLEAR     41  38  89 W7        29.81F
HETTINGER      CLEAR     42  38  85 CALM      29.86S
$$

 *****  OTHER OBSERVATIONS NORTHEAST NORTH DAKOTA  *****

CITY           SKY/WX    TMP DP  RH WIND       PRES   REMARKS
WALHALLA       LGT RAIN  55  55 100 N14       29.67F
LANGDON        CLOUDY    55  55 100 N13       29.72S
CAVALIER       LGT RAIN  57  57 100 NW9       29.66S
GRAFTON        CLOUDY    57  57 100 W9        29.69R
CANDO          NOT AVBL
FORT TOTTEN    NOT AVBL
ROLLA          CLOUDY    54  54 100 NE6       29.77S FOG
RUGBY          MOCLDY    55  55 100 E6        29.75S
 ***** THE ABOVE OBSERVATIONS ARE NON NWS ARE NOT QUALITY
        CONTROLLED AND MAY MIS-REPORT RAIN FOR SNOW...
$$

 *****  OTHER OBSERVATIONS SOUTHEAST NORTH DAKOTA *****

CITY           SKY/WX    TMP DP  RH WIND       PRES   REMARKS
COOPERSTOWN    NOT AVBL
VALLEY CITY    LGT RAIN  55  55 100 E5        29.75R
OAKES            N/A    N/A N/A N/A MISG        N/A
GWINNER        FAIR      55  54  94 CALM      29.76F
SHEYENNE NWR     N/A     54  53  98 CALM      29.95S
BUFFALO          N/A    N/A N/A N/A CALM        N/A
WYNDMERE         N/A     57  57 100 N2          N/A
 ***** THE ABOVE OBSERVATIONS ARE NON NWS ARE NOT QUALITY
       CONTROLLED AND MAY MIS-REPORT RAIN FOR SNOW...
$$

  *****  WEATHER ACROSS NORTHERN MINNESOTA  *****

CITY           SKY/WX    TMP DP  RH WIND       PRES   REMARKS
FLAG ISLAND    CLOUDY    55  55 100 E9G18     29.73F
WARROAD        CLOUDY    59  55  88 SE18      29.71F
ROSEAU         CLOUDY    61  54  77 SE15      29.68F
HALLOCK        CLOUDY    61  59  94 S9        29.64R
THF RVR FALLS  CLOUDY    59  55  88 SW14      29.73R
HALSTAD        NOT AVBL
FOSSTON        PTCLDY    55  55 100 S6        29.75F
BAUDETTE       CLOUDY    58  54  86 SE14      29.75S
WASKISH        MOCLDY    57  54  88 SE7       29.77S
CROOKSTON      CLOUDY    59  57  94 SW8       29.72F
$$
  *****  WEATHER ACROSS CENTRAL AND WEST MINNESOTA  *****

CITY           SKY/WX    TMP DP  RH WIND       PRES   REMARKS
BEMIDJI        CLOUDY    58  55  88 SE14G25   29.78S
PARK RAPIDS    CLOUDY    58  55  90 SE13      29.79S
WADENA         CLOUDY    57  57 100 SE10      29.77F
DETROIT LAKES  CLOUDY    61  59  94 S10       29.76F THUNDER
MOORHEAD       CLOUDY    59  54  82 CALM      29.75F
FERGUS FALLS   MOCLDY    64  61  88 CALM      29.71F
ELBOW LAKE     FAIR      65  58  76 S15       29.75F
MORRIS MN      CLOUDY    70  46  43 S18G29    29.74F
STAPLES        PTCLDY    55  55 100 SE5       29.80S
WHEATON        CLOUDY    64  57  77 W5        29.76S
$$
  *****  WEATHER ELSEWHERE ACROSS MINNESOTA  *****

CITY           SKY/WX    TMP DP  RH WIND       PRES   REMARKS
DULUTH         CLOUDY    47  45  93 E9        29.86S
INTRNTL FALLS  CLOUDY    60  48  64 SE9       29.79F
ELY            CLEAR     52  46  82 E7        29.84F
CLOQUET        CLOUDY    45  45 100 E8        29.87R
BRAINERD       CLOUDY    55  55 100 SE7       29.82F
HIBBING        MOCLDY    49  49 100 S3        29.84S
ALEXANDRIA     CLOUDY    68  56  65 S14G25    29.80R
SAINT CLOUD    PTCLDY    61  60  97 E6        29.80F
MINNEAPOLIS    PTCLDY    67  62  84 E10       29.82F
$$

  *****  WEATHER ACROSS SOUTH DAKOTA  *****

CITY           SKY/WX    TMP DP  RH WIND       PRES   REMARKS
SIOUX FALLS    CLOUDY    63  56  78 SE6       29.80R
BROOKINGS      CLOUDY    59  52  77 SE7       29.81R
WATERTOWN      CLOUDY    60  53  77 SW12      29.79R
HURON          CLEAR     60  53  77 W9        29.81R
SISSETON         N/A     64  53  67 NW10      29.75R
ABERDEEN       CLEAR     57  50  77 NW6       29.79R
MITCHELL       CLEAR     63  58  83 CALM      29.83R
PIERRE         CLEAR     52  48  86 CALM      29.84R
MOBRIDGE       CLEAR     53  48  83 N5        29.80R
RAPID CITY     PTCLDY    50  46  86 NW6       29.89F
$$

  *****  SOME WEATHER IN NEARBY STATES *****

CITY           SKY/WX    TMP DP  RH WIND       PRES   REMARKS
GLASGOW MT     CLOUDY    54  44  69 SW7       29.84R
GREAT FALLS MT PTCLDY    49  42  77 W3        29.93S
CHEYENNE WY    CLOUDY    50  34  54 CALM      30.04R
SCOTTSBLUFF NE CLOUDY    50  44  80 N6        29.96F
OMAHA NE       MOCLDY    71  67  87 SE3       29.83S
DES MOINES IA  CLOUDY    74  65  73 S5        29.86R
DAVENPORT IA   CLEAR     69  59  70 S7        29.90F
CHICAGO IL     CLOUDY    66  65  96 SE14      29.94F
EAU CLAIRE WI  FOG       59  59 100 CALM      29.86R VSB 1/4
LA CROSSE WI   CLEAR     66  64  93 SE5       29.85R
$$

  *****  SOME NATIONAL WEATHER *****

CITY           SKY/WX    TMP DP  RH WIND       PRES   REMARKS
LA GUARDIA NY  PTCLDY    80  53  39 W8        30.05R
RALEIGH NC     MOCLDY    67  59  75 CALM      30.16F
ATLANTA GA     MOCLDY    73  57  57 S3        30.17F
NEW ORLEANS LA PTCLDY    77  71  82 SE8       30.13S
OKLAHOMA CITY  MOCLDY    76  74  93 S13       29.89R
ALBUQUERQUE NM PTCLDY    69  13  11 SW5       29.98S
SALT LAKE CITY MOCLDY    59  44  57 N6        30.04R
LOS ANGELES CA CLEAR     59  53  80 W13       30.08R
BOISE ID       CLEAR     63  39  41 CALM      29.99R
SEATTLE WA     MOCLDY    55  45  68 SW9       30.20R
$$

*** WEATHER ACROSS MANITOBA...SASKATCHEWAN AND ONTARIO ***
                ***ONTARIO***

CITY           SKY/WX    TMP DP  RH WIND       PRES   REMARKS
GERALDTON      CLOUDY    59  43  55 E7        30.01F
THUNDER BAY    CLOUDY    52  46  82 E12       29.93F
SIOUX LOOKOUT  CLOUDY    57  48  72 SE5       29.89F
TORONTO        MOCLDY    68  55  64 NW3       30.04S
BIG TROUT LK   CLOUDY    57  46  67 SE12G17   29.96F
PICKLE LAKE    NOT AVBL
DRYDEN         CLOUDY    57  54  88 E5        29.85F
KENORA         LGT RAIN  55  54  94 E12G18    29.82F FOG
$$
                *** MANITOBA***

CITY           SKY/WX    TMP DP  RH WIND       PRES   REMARKS
BRANDON        LGT RAIN  55  54  94 E13G18    29.79F
DAUPHIN        CLOUDY    55  54  94 E3        29.85S
ISLAND LAKE    PTCLDY    55  50  82 SE3       29.87F
PILOT MOUND      N/A     55  54  94 N7          N/A
THE PAS        CLEAR     52  46  82 CALM      29.85F
THOMPSON       PTCLDY    48  45  87 CALM      29.84F
WINNIPEG       LGT RAIN  57  55  94 NE18      29.72F FOG
LYNN LAKE      PTCLDY    55  45  67 W7        29.85S
CHURCHILL      CLOUDY    37  36  93 E8        29.93S
GILLAM         CLEAR     55  46  71 SE5       29.86F
$$
                ***SASKATCHEWAN***

CITY           SKY/WX    TMP DP  RH WIND       PRES   REMARKS
ESTEVAN        LGT RAIN  54  52  94 E3        29.78F
KINDERSLEY     PTCLDY    55  46  71 CALM      29.90S
LLOYDMINSTER   CLEAR     52  45  76 SW8       29.90S
PRINCE ALBERT  CLEAR     48  48 100 W2        29.87S
REGINA         LGT RAIN  52  52 100 NE9       29.85S
YORKTON        LGT RAIN  54  54 100 N8        29.85S FC1F1C2F2C3F3C4F4C5F5C6F6C7F7C8F8C9F9CaFaCbFbCcFcCdFdCe!



USA.gov is the U.S. government's official web portal to all federal, state and local government web resources and services.